W1CPR-13 Weather Reports


time (UTC)temp
F
wind
direction
speed
knots
gust
knots
rain 1hr
in
rain 24hr
in
rain mn
in
humidity
%
barometer
mb
20260505063030 54 184 0.0 5.2 0.00 0.00 0.00 70 1018.4
20260505061522 54 231 0.9 3.5 0.00 0.00 0.00 69 1018.5
20260505060017 55 222 1.7 7.0 0.00 0.00 0.00 67 1018.5
20260505054515 55 196 0.9 6.1 0.00 0.00 0.00 67 1018.6
20260505053012 55 196 1.7 6.1 0.00 0.00 0.00 66 1018.5
20260505051509 55 189 0.9 6.1 0.00 0.00 0.00 65 1018.5
20260505041611 56 202 1.7 6.1 0.00 0.00 0.00 61 1018.6
20260505040104 57 196 0.9 6.1 0.00 0.00 0.00 60 1018.6
20260505034557 57 173 2.6 8.7 0.00 0.00 0.00 59 1018.5
20260505033057 57 98 2.6 9.6 0.00 0.00 0.00 58 1018.5
20260505031604 57 222 3.5 13.0 0.00 0.00 0.00 57 1018.5
20260505030104 58 193 1.7 10.4 0.00 0.00 0.00 55 1018.5
20260505024603 58 200 2.6 8.7 0.00 0.00 0.00 54 1018.5
20260505023059 58 211 3.5 11.3 0.00 0.00 0.00 53 1018.6
20260505021557 59 198 1.7 6.1 0.00 0.00 0.00 51 1018.7
20260505014551 60 183 2.6 10.4 0.00 0.00 0.00 49 1018.4
20260505013050 60 225 5.2 11.3 0.00 0.00 0.00 48 1018.3
20260505011550 61 161 1.7 7.8 0.00 0.00 0.00 47 1018.0
20260505010106 61 194 0.9 6.1 0.00 0.00 0.00 47 1017.7
20260505004548 62 150 2.6 11.3 0.00 0.00 0.00 45 1017.5
20260505003051 63 180 1.7 9.6 0.00 0.00 0.00 45 1017.2
20260505001547 63 199 1.7 11.3 0.00 0.00 0.00 44 1016.7
20260505000053 64 196 1.7 8.7 0.00 0.00 0.00 43 1016.3
20260504234546 64 150 2.6 11.3 0.00 0.00 0.00 43 1016.1
20260504233051 65 202 2.6 7.8 0.00 0.00 0.00 41 1015.8
20260504231543 66 198 4.3 10.4 0.00 0.00 0.00 39 1015.5
20260504224558 69 213 5.2 14.8 0.00 0.00 0.00 34 1014.9
20260504223041 70 174 4.3 9.6 0.00 0.00 0.00 30 1014.7
20260504221540 70 186 2.6 8.7 0.00 0.00 0.00 30 1014.6
20260504220043 70 200 2.6 13.9 0.00 0.00 0.00 30 1014.8
20260504214544 71 220 2.6 13.0 0.00 0.00 0.00 30 1014.7
20260504213037 71 200 4.3 11.3 0.00 0.00 0.00 29 1014.8
20260504211537 71 203 1.7 9.6 0.00 0.00 0.00 29 1014.8
20260504210045 71 222 6.1 12.2 0.00 0.00 0.00 28 1014.7
20260504204538 71 217 5.2 10.4 0.00 0.00 0.00 27 1014.8
20260504203034 71 231 2.6 8.7 0.00 0.00 0.00 28 1014.8
20260504201532 71 220 6.1 12.2 0.00 0.00 0.00 27 1014.9
20260504200043 71 207 4.3 14.8 0.00 0.00 0.00 26 1015.0
20260504194530 71 192 6.1 17.4 0.00 0.00 0.00 26 1015.0
20260504193028 71 222 3.5 14.8 0.00 0.00 0.00 27 1015.1
20260504191527 71 214 3.5 13.9 0.00 0.00 0.00 27 1015.2
20260504190026 71 202 5.2 9.6 0.00 0.00 0.00 27 1015.2
20260504184532 70 223 6.1 14.8 0.00 0.00 0.00 28 1015.2
20260504183025 69 168 5.2 17.4 0.00 0.00 0.00 28 1015.5
20260504181518 69 224 4.3 18.2 0.00 0.00 0.00 29 1015.6
20260504180015 68 215 2.6 13.9 0.00 0.00 0.00 29 1015.8
20260504174513 68 225 6.1 17.4 0.00 0.00 0.00 28 1015.9
20260504173012 68 192 5.2 17.4 0.00 0.00 0.00 29 1016.1
20260504171509 68 228 5.2 18.2 0.00 0.00 0.00 30 1016.0
20260504160105 66 215 6.1 16.5 0.00 0.00 0.00 31 1016.6
20260504081543 46 194 1.7 5.2 0.00 0.01 0.00 55 1018.9